| time (UTC) | temp F | wind direction | speed knots | gust knots | rain 1hr in | rain 24hr in | rain mn in | humidity % | barometer mb |
| 20260507080528 | 58 | 355 | 0.0 | 0.9 | 0.00 | 0.00 | 0.00 | 85 | 1009.8 |
| 20260507080016 | 58 | 355 | 0.0 | 0.0 | 0.00 | 0.00 | 0.00 | 86 | 1010.0 |
| 20260507075525 | 57 | 355 | 0.0 | 0.9 | 0.00 | 0.00 | 0.00 | 88 | 1009.9 |
| 20260507075033 | 56 | 355 | 0.0 | 1.7 | 0.00 | 0.00 | 0.00 | 90 | 1010.0 |
| 20260507074541 | 56 | 355 | 0.0 | 1.7 | 0.00 | 0.00 | 0.00 | 91 | 1010.0 |
| 20260507074028 | 56 | 355 | 0.0 | 2.6 | 0.00 | 0.00 | 0.00 | 92 | 1010.2 |
| 20260507073516 | 55 | 355 | 0.0 | 2.6 | 0.00 | 0.00 | 0.00 | 93 | 1010.1 |
| 20260507073021 | 55 | 355 | 0.0 | 2.6 | 0.00 | 0.00 | 0.00 | 95 | 1010.1 |
| 20260507072510 | 55 | 355 | 0.0 | 0.0 | 0.00 | 0.00 | 0.00 | 95 | 1010.1 |
| 20260507072017 | 54 | 355 | 0.0 | 0.9 | 0.00 | 0.00 | 0.00 | 96 | 1010.1 |
| 20260507071525 | 54 | 355 | 0.0 | 0.0 | 0.00 | 0.00 | 0.00 | 97 | 1010.0 |
| 20260507071014 | 54 | 355 | 0.0 | 0.0 | 0.00 | 0.00 | 0.00 | 97 | 1010.1 |
| 20260507070542 | 53 | 355 | 0.0 | 0.0 | 0.00 | 0.00 | 0.00 | 97 | 1010.1 |
| 20260507070028 | 53 | 355 | 0.0 | 2.6 | 0.00 | 0.00 | 0.00 | 98 | 1010.1 |
| 20260507065516 | 53 | 355 | 0.0 | 1.7 | 0.00 | 0.00 | 0.00 | 98 | 1010.1 |
| 20260507065024 | 52 | 355 | 0.0 | 0.0 | 0.00 | 0.00 | 0.00 | 98 | 1010.1 |
| 20260507064513 | 52 | 355 | 0.0 | 0.0 | 0.00 | 0.00 | 0.00 | 98 | 1010.1 |
| 20260507064041 | 51 | 355 | 0.0 | 0.9 | 0.00 | 0.00 | 0.00 | 98 | 1010.1 |
| 20260507063508 | 51 | 355 | 0.0 | 0.9 | 0.00 | 0.00 | 0.00 | 98 | 1010.2 |
| 20260507063016 | 51 | 31 | 0.0 | 0.0 | 0.00 | 0.00 | 0.00 | 98 | 1010.3 |
| 20260507062545 | 51 | 31 | 0.0 | 0.0 | 0.00 | 0.00 | 0.00 | 97 | 1010.3 |
| 20260507062013 | 51 | 31 | 0.0 | 0.0 | 0.00 | 0.00 | 0.00 | 97 | 1010.2 |
| 20260507061521 | 50 | 31 | 0.0 | 1.7 | 0.00 | 0.00 | 0.00 | 97 | 1010.2 |
| 20260507061009 | 50 | 31 | 0.0 | 2.6 | 0.00 | 0.00 | 0.00 | 97 | 1010.1 |
| 20260507060518 | 50 | 31 | 0.0 | 2.6 | 0.00 | 0.00 | 0.00 | 97 | 1010.1 |
| 20260507060025 | 50 | 31 | 0.0 | 0.9 | 0.00 | 0.00 | 0.00 | 97 | 1010.1 |
| 20260507055513 | 50 | 31 | 0.0 | 0.0 | 0.00 | 0.00 | 0.00 | 96 | 1010.1 |
| 20260507055022 | 50 | 31 | 0.0 | 0.0 | 0.00 | 0.00 | 0.00 | 96 | 1010.2 |
| 20260507054510 | 49 | 31 | 0.0 | 0.0 | 0.00 | 0.00 | 0.00 | 96 | 1010.1 |
| 20260507054015 | 49 | 31 | 0.0 | 0.0 | 0.00 | 0.00 | 0.00 | 96 | 1010.0 |
| 20260507053523 | 50 | 31 | 0.0 | 0.0 | 0.00 | 0.00 | 0.00 | 96 | 1009.9 |
| 20260507053012 | 50 | 31 | 0.0 | 0.0 | 0.00 | 0.00 | 0.00 | 95 | 1010.0 |
| 20260507052542 | 50 | 31 | 0.0 | 0.0 | 0.00 | 0.00 | 0.00 | 95 | 1010.0 |
| 20260507052028 | 50 | 31 | 0.0 | 0.0 | 0.00 | 0.00 | 0.00 | 95 | 1010.0 |
| 20260507051517 | 50 | 31 | 0.0 | 0.0 | 0.00 | 0.00 | 0.00 | 95 | 1010.0 |
| 20260507051024 | 50 | 31 | 0.0 | 0.0 | 0.00 | 0.00 | 0.00 | 95 | 1010.1 |
| 20260507050512 | 50 | 31 | 0.0 | 0.0 | 0.00 | 0.00 | 0.00 | 95 | 1010.0 |
| 20260507050021 | 50 | 31 | 0.0 | 0.0 | 0.00 | 0.00 | 0.00 | 95 | 1010.1 |
| 20260507045509 | 50 | 31 | 0.0 | 0.0 | 0.00 | 0.00 | 0.00 | 95 | 1010.0 |
| 20260507045014 | 50 | 31 | 0.0 | 0.0 | 0.00 | 0.00 | 0.00 | 95 | 1010.1 |
| 20260507044523 | 51 | 31 | 0.0 | 0.0 | 0.00 | 0.00 | 0.00 | 95 | 1010.1 |
| 20260507044011 | 51 | 31 | 0.0 | 0.0 | 0.00 | 0.00 | 0.00 | 95 | 1010.1 |
| 20260507043540 | 51 | 31 | 0.0 | 0.0 | 0.00 | 0.00 | 0.00 | 95 | 1010.1 |
| 20260507043048 | 51 | 31 | 0.0 | 0.0 | 0.00 | 0.00 | 0.00 | 95 | 1010.1 |
| 20260507042515 | 51 | 31 | 0.0 | 0.0 | 0.00 | 0.00 | 0.00 | 95 | 1010.2 |
| 20260507042024 | 51 | 31 | 0.0 | 0.0 | 0.00 | 0.00 | 0.00 | 95 | 1010.2 |
| 20260507041510 | 51 | 31 | 0.0 | 0.0 | 0.00 | 0.00 | 0.00 | 95 | 1010.2 |
| 20260507041015 | 51 | 31 | 0.0 | 0.0 | 0.00 | 0.00 | 0.00 | 95 | 1010.2 |
| 20260507040544 | 52 | 31 | 0.0 | 0.0 | 0.00 | 0.00 | 0.00 | 95 | 1010.1 |
| 20260507040010 | 52 | 31 | 0.0 | 0.0 | 0.00 | 0.00 | 0.00 | 95 | 1010.3 |
| 20260507035518 | 52 | 31 | 0.0 | 0.0 | 0.00 | 0.00 | 0.00 | 95 | 1010.3 |
| 20260507035027 | 52 | 31 | 0.0 | 1.7 | 0.00 | 0.00 | 0.00 | 95 | 1010.3 |
| 20260507034536 | 52 | 31 | 0.0 | 1.7 | 0.00 | 0.00 | 0.00 | 95 | 1010.3 |
| 20260507034023 | 52 | 31 | 0.0 | 1.7 | 0.00 | 0.00 | 0.00 | 95 | 1010.4 |
| 20260507033531 | 52 | 31 | 0.0 | 0.0 | 0.00 | 0.00 | 0.00 | 95 | 1010.3 |
| 20260507033038 | 52 | 31 | 0.0 | 0.0 | 0.00 | 0.00 | 0.00 | 95 | 1010.3 |
| 20260507032546 | 52 | 31 | 0.0 | 0.0 | 0.00 | 0.00 | 0.00 | 95 | 1010.4 |
| 20260507032013 | 52 | 31 | 0.0 | 0.0 | 0.00 | 0.00 | 0.00 | 95 | 1010.4 |
| 20260507031522 | 52 | 31 | 0.0 | 0.0 | 0.00 | 0.00 | 0.00 | 95 | 1010.4 |
| 20260507031010 | 52 | 31 | 0.0 | 0.0 | 0.00 | 0.00 | 0.00 | 95 | 1010.5 |
| 20260507030516 | 52 | 31 | 0.0 | 0.0 | 0.00 | 0.00 | 0.00 | 95 | 1010.5 |
| 20260507030044 | 52 | 31 | 0.0 | 0.0 | 0.00 | 0.04 | 0.00 | 94 | 1010.6 |
| 20260507025531 | 52 | 31 | 0.0 | 0.0 | 0.00 | 0.04 | 0.00 | 94 | 1010.6 |
| 20260507025014 | 52 | 31 | 0.0 | 0.0 | 0.00 | 0.04 | 0.00 | 94 | 1010.6 |
| 20260507024523 | 52 | 31 | 0.0 | 0.0 | 0.00 | 0.04 | 0.00 | 94 | 1010.6 |
| 20260507024012 | 52 | 31 | 0.0 | 0.0 | 0.00 | 0.04 | 0.00 | 94 | 1010.6 |
| 20260507023520 | 52 | 31 | 0.0 | 0.0 | 0.00 | 0.04 | 0.00 | 94 | 1010.7 |
| 20260507023028 | 52 | 31 | 0.0 | 0.0 | 0.00 | 0.04 | 0.00 | 94 | 1010.7 |
| 20260507022516 | 52 | 31 | 0.0 | 0.0 | 0.00 | 0.04 | 0.00 | 94 | 1010.7 |
| 20260507022024 | 52 | 31 | 0.0 | 0.0 | 0.00 | 0.04 | 0.00 | 94 | 1010.6 |
| 20260507021512 | 52 | 31 | 0.0 | 0.0 | 0.00 | 0.04 | 0.00 | 93 | 1010.8 |
| 20260507021019 | 52 | 31 | 0.0 | 0.0 | 0.00 | 0.04 | 0.00 | 93 | 1010.8 |
| 20260507020512 | 52 | 31 | 0.0 | 0.0 | 0.00 | 0.04 | 0.00 | 93 | 1010.9 |
| 20260507020020 | 52 | 31 | 0.0 | 0.0 | 0.00 | 0.04 | 0.00 | 93 | 1010.9 |
| 20260507015508 | 52 | 31 | 0.0 | 0.0 | 0.00 | 0.04 | 0.00 | 93 | 1010.9 |
| 20260507015016 | 52 | 31 | 0.0 | 0.0 | 0.00 | 0.04 | 0.00 | 93 | 1010.9 |
| 20260507014524 | 52 | 31 | 0.0 | 0.0 | 0.00 | 0.04 | 0.00 | 93 | 1010.9 |
| 20260507014012 | 52 | 31 | 0.0 | 0.0 | 0.00 | 0.04 | 0.00 | 93 | 1011.0 |
| 20260507013542 | 52 | 31 | 0.0 | 0.0 | 0.00 | 0.04 | 0.00 | 92 | 1011.0 |
| 20260507013009 | 52 | 31 | 0.0 | 0.0 | 0.00 | 0.04 | 0.00 | 92 | 1011.0 |
| 20260507012518 | 53 | 31 | 0.0 | 0.0 | 0.00 | 0.04 | 0.00 | 92 | 1011.0 |
| 20260507012026 | 53 | 31 | 0.0 | 0.0 | 0.00 | 0.04 | 0.00 | 92 | 1011.1 |
| 20260507011514 | 53 | 31 | 0.0 | 0.0 | 0.00 | 0.04 | 0.00 | 92 | 1011.1 |
| 20260507011019 | 53 | 31 | 0.0 | 0.0 | 0.00 | 0.04 | 0.00 | 92 | 1011.1 |
| 20260507010528 | 53 | 31 | 0.0 | 0.0 | 0.00 | 0.04 | 0.00 | 92 | 1011.2 |
| 20260507010015 | 53 | 31 | 0.0 | 0.0 | 0.00 | 0.04 | 0.00 | 92 | 1011.2 |
| 20260507005523 | 53 | 31 | 0.0 | 0.0 | 0.00 | 0.04 | 0.00 | 92 | 1011.3 |
| 20260507005011 | 53 | 31 | 0.0 | 0.0 | 0.00 | 0.04 | 0.00 | 92 | 1011.3 |
| 20260507004520 | 53 | 31 | 0.0 | 0.0 | 0.00 | 0.04 | 0.00 | 92 | 1011.3 |
| 20260507004028 | 53 | 31 | 0.0 | 0.0 | 0.00 | 0.04 | 0.00 | 92 | 1011.4 |
| 20260507003516 | 53 | 31 | 0.0 | 0.0 | 0.00 | 0.04 | 0.00 | 92 | 1011.4 |
| 20260507003025 | 54 | 31 | 0.0 | 0.0 | 0.00 | 0.04 | 0.00 | 92 | 1011.5 |
| 20260507002514 | 54 | 31 | 0.0 | 0.0 | 0.00 | 0.04 | 0.00 | 91 | 1011.7 |
| 20260507002022 | 54 | 31 | 0.0 | 0.0 | 0.00 | 0.04 | 0.00 | 91 | 1011.7 |
| 20260507001510 | 54 | 31 | 0.0 | 0.0 | 0.00 | 0.04 | 0.00 | 91 | 1011.7 |
| 20260507001016 | 54 | 31 | 0.0 | 0.0 | 0.00 | 0.04 | 0.00 | 91 | 1011.7 |
| 20260507000524 | 54 | 31 | 0.0 | 0.0 | 0.00 | 0.04 | 0.00 | 90 | 1011.6 |
| 20260507000012 | 54 | 31 | 0.0 | 0.0 | 0.00 | 0.04 | 0.01 | 90 | 1011.7 |
| 20260506235521 | 54 | 31 | 0.0 | 0.0 | 0.00 | 0.04 | 0.01 | 90 | 1011.8 |
| 20260506235028 | 54 | 31 | 0.0 | 0.0 | 0.00 | 0.04 | 0.01 | 90 | 1011.9 |
| 20260506234515 | 54 | 31 | 0.0 | 0.0 | 0.00 | 0.04 | 0.01 | 90 | 1012.0 |
| 20260506234044 | 55 | 31 | 0.0 | 0.0 | 0.00 | 0.04 | 0.01 | 90 | 1012.0 |
| 20260506233531 | 55 | 31 | 0.0 | 0.0 | 0.00 | 0.04 | 0.01 | 90 | 1012.0 |
| 20260506233016 | 55 | 31 | 0.0 | 0.0 | 0.00 | 0.04 | 0.01 | 90 | 1012.1 |
| 20260506232524 | 55 | 31 | 0.0 | 0.0 | 0.00 | 0.04 | 0.01 | 90 | 1012.1 |
| 20260506232012 | 55 | 31 | 0.0 | 0.0 | 0.00 | 0.04 | 0.01 | 90 | 1012.0 |
| 20260506231520 | 55 | 31 | 0.0 | 0.0 | 0.00 | 0.04 | 0.01 | 90 | 1012.0 |
| 20260506231048 | 55 | 31 | 0.0 | 0.0 | 0.00 | 0.04 | 0.01 | 90 | 1012.0 |
| 20260506230516 | 55 | 31 | 0.0 | 0.0 | 0.00 | 0.04 | 0.01 | 90 | 1011.9 |
| 20260506230023 | 55 | 31 | 0.0 | 0.0 | 0.00 | 0.08 | 0.01 | 90 | 1012.0 |
| 20260506225511 | 56 | 31 | 0.0 | 0.0 | 0.00 | 0.08 | 0.01 | 90 | 1012.0 |
| 20260506225019 | 55 | 31 | 0.0 | 0.0 | 0.00 | 0.08 | 0.01 | 90 | 1012.0 |
| 20260506224526 | 55 | 31 | 0.0 | 0.0 | 0.00 | 0.08 | 0.01 | 90 | 1011.9 |
| 20260506224013 | 55 | 31 | 0.0 | 0.0 | 0.00 | 0.08 | 0.01 | 90 | 1012.0 |
| 20260506223521 | 55 | 31 | 0.0 | 0.0 | 0.00 | 0.08 | 0.01 | 90 | 1012.1 |
| 20260506223029 | 55 | 31 | 0.0 | 0.0 | 0.00 | 0.08 | 0.01 | 90 | 1012.2 |
| 20260506222516 | 56 | 31 | 0.0 | 0.0 | 0.00 | 0.08 | 0.01 | 89 | 1012.2 |
| 20260506222024 | 56 | 31 | 0.0 | 0.0 | 0.00 | 0.08 | 0.01 | 89 | 1012.3 |
| 20260506221512 | 56 | 31 | 0.0 | 0.0 | 0.00 | 0.08 | 0.01 | 89 | 1012.4 |
| 20260506221018 | 56 | 31 | 0.0 | 0.0 | 0.00 | 0.08 | 0.01 | 89 | 1012.5 |
| 20260506220525 | 56 | 31 | 0.0 | 0.0 | 0.00 | 0.08 | 0.01 | 89 | 1012.5 |
| 20260506220014 | 56 | 31 | 0.0 | 0.0 | 0.00 | 0.16 | 0.01 | 89 | 1012.5 |
| 20260506215522 | 56 | 31 | 0.0 | 0.0 | 0.00 | 0.16 | 0.01 | 89 | 1012.6 |
| 20260506215010 | 56 | 31 | 0.0 | 0.0 | 0.00 | 0.16 | 0.01 | 89 | 1012.6 |
| 20260506214539 | 56 | 31 | 0.0 | 0.0 | 0.00 | 0.16 | 0.01 | 89 | 1012.6 |
| 20260506214026 | 56 | 31 | 0.0 | 0.0 | 0.00 | 0.16 | 0.01 | 89 | 1012.6 |
| 20260506213534 | 56 | 31 | 0.0 | 0.0 | 0.00 | 0.16 | 0.01 | 89 | 1012.5 |
| 20260506213022 | 56 | 31 | 0.0 | 0.0 | 0.00 | 0.16 | 0.01 | 88 | 1012.5 |
| 20260506212510 | 56 | 31 | 0.0 | 0.0 | 0.00 | 0.16 | 0.01 | 88 | 1012.4 |
| 20260506212017 | 57 | 31 | 0.0 | 0.0 | 0.00 | 0.16 | 0.01 | 87 | 1012.5 |
| 20260506211546 | 57 | 31 | 0.0 | 0.0 | 0.00 | 0.16 | 0.01 | 87 | 1012.5 |
| 20260506211013 | 57 | 31 | 0.0 | 0.0 | 0.00 | 0.16 | 0.01 | 86 | 1012.6 |
| 20260506210521 | 57 | 31 | 0.0 | 0.0 | 0.00 | 0.16 | 0.01 | 85 | 1012.6 |
| 20260506210047 | 57 | 31 | 0.0 | 0.0 | 0.00 | 0.16 | 0.01 | 84 | 1012.5 |
| 20260506205514 | 57 | 31 | 0.0 | 0.0 | 0.00 | 0.16 | 0.01 | 85 | 1012.5 |
| 20260506205022 | 57 | 31 | 0.0 | 0.0 | 0.00 | 0.16 | 0.01 | 85 | 1012.6 |
| 20260506204514 | 57 | 31 | 0.0 | 0.0 | 0.00 | 0.16 | 0.01 | 85 | 1012.6 |
| 20260506204039 | 57 | 31 | 0.0 | 0.0 | 0.00 | 0.16 | 0.01 | 85 | 1012.5 |
| 20260506203525 | 57 | 31 | 0.0 | 0.0 | 0.00 | 0.16 | 0.01 | 85 | 1012.5 |
| 20260506203016 | 57 | 31 | 0.0 | 0.0 | 0.00 | 0.16 | 0.01 | 85 | 1012.5 |
| 20260506202524 | 57 | 31 | 0.0 | 0.0 | 0.00 | 0.16 | 0.01 | 85 | 1012.5 |
| 20260506202013 | 58 | 31 | 0.0 | 0.0 | 0.00 | 0.16 | 0.01 | 84 | 1012.5 |
| 20260506201521 | 58 | 31 | 0.0 | 0.0 | 0.00 | 0.16 | 0.01 | 84 | 1012.4 |
| 20260506201028 | 58 | 31 | 0.0 | 0.0 | 0.00 | 0.16 | 0.01 | 82 | 1012.4 |
| 20260506200537 | 58 | 31 | 0.0 | 0.0 | 0.00 | 0.16 | 0.01 | 82 | 1012.3 |
| 20260506200045 | 58 | 31 | 0.0 | 0.0 | 0.00 | 0.16 | 0.01 | 82 | 1012.4 |
| 20260506195528 | 58 | 31 | 0.0 | 0.0 | 0.00 | 0.16 | 0.01 | 82 | 1012.3 |
| 20260506195014 | 58 | 31 | 0.0 | 0.0 | 0.00 | 0.16 | 0.01 | 82 | 1012.3 |
| 20260506194518 | 58 | 31 | 0.0 | 0.0 | 0.00 | 0.16 | 0.01 | 81 | 1012.2 |
| 20260506194020 | 58 | 31 | 0.0 | 0.0 | 0.00 | 0.16 | 0.01 | 81 | 1012.3 |
| 20260506193525 | 58 | 31 | 0.0 | 0.0 | 0.00 | 0.16 | 0.01 | 81 | 1012.3 |
| 20260506193028 | 58 | 31 | 0.0 | 0.0 | 0.00 | 0.16 | 0.01 | 81 | 1012.2 |
| 20260506192512 | 58 | 31 | 0.0 | 0.0 | 0.00 | 0.16 | 0.01 | 80 | 1012.2 |
| 20260506192038 | 58 | 31 | 0.0 | 0.0 | 0.00 | 0.16 | 0.01 | 80 | 1012.2 |
| 20260506191520 | 58 | 31 | 0.0 | 2.6 | 0.00 | 0.16 | 0.01 | 80 | 1012.2 |
| 20260506191048 | 58 | 31 | 0.0 | 2.6 | 0.00 | 0.16 | 0.01 | 80 | 1012.3 |
| 20260506190546 | 58 | 31 | 0.0 | 0.9 | 0.00 | 0.16 | 0.01 | 80 | 1012.2 |
| 20260506190029 | 59 | 31 | 0.0 | 2.6 | 0.00 | 0.16 | 0.01 | 79 | 1012.2 |
| 20260506185515 | 59 | 31 | 0.9 | 2.6 | 0.00 | 0.16 | 0.01 | 80 | 1012.1 |
| 20260506185043 | 59 | 31 | 0.0 | 3.5 | 0.00 | 0.16 | 0.01 | 79 | 1012.2 |
| 20260506184527 | 59 | 31 | 2.6 | 3.5 | 0.00 | 0.16 | 0.01 | 79 | 1012.1 |
| 20260506184014 | 59 | 33 | 0.9 | 3.5 | 0.00 | 0.16 | 0.01 | 78 | 1012.1 |
| 20260506183520 | 59 | 33 | 0.9 | 4.3 | 0.00 | 0.16 | 0.01 | 78 | 1012.0 |
| 20260506183025 | 59 | 22 | 0.9 | 4.3 | 0.00 | 0.16 | 0.01 | 78 | 1012.0 |
| 20260506182513 | 59 | 22 | 1.7 | 4.3 | 0.00 | 0.16 | 0.01 | 79 | 1012.2 |
| 20260506182017 | 60 | 346 | 1.7 | 3.5 | 0.00 | 0.16 | 0.01 | 79 | 1012.2 |
| 20260506181523 | 60 | 345 | 0.0 | 3.5 | 0.00 | 0.16 | 0.01 | 79 | 1012.2 |
| 20260506181026 | 60 | 345 | 0.9 | 4.3 | 0.00 | 0.16 | 0.01 | 79 | 1012.2 |
| 20260506180511 | 60 | 345 | 2.6 | 5.2 | 0.00 | 0.16 | 0.01 | 79 | 1012.2 |
| 20260506180017 | 60 | 340 | 0.9 | 7.0 | 0.00 | 0.16 | 0.01 | 79 | 1012.2 |
| 20260506175540 | 60 | 329 | 2.6 | 7.0 | 0.00 | 0.16 | 0.01 | 79 | 1012.2 |
| 20260506175017 | 60 | 355 | 0.0 | 4.3 | 0.00 | 0.16 | 0.01 | 80 | 1012.3 |
| 20260506174519 | 60 | 5 | 1.7 | 8.7 | 0.00 | 0.16 | 0.01 | 80 | 1012.3 |
| 20260506174020 | 60 | 318 | 3.5 | 8.7 | 0.00 | 0.16 | 0.01 | 79 | 1012.3 |
| 20260506173523 | 60 | 355 | 2.6 | 7.8 | 0.00 | 0.16 | 0.01 | 80 | 1012.2 |
| 20260506173011 | 60 | 330 | 2.6 | 8.7 | 0.00 | 0.16 | 0.01 | 79 | 1012.2 |
| 20260506172514 | 61 | 15 | 4.3 | 7.8 | 0.00 | 0.16 | 0.01 | 79 | 1012.2 |
| 20260506172017 | 61 | 355 | 4.3 | 8.7 | 0.00 | 0.16 | 0.01 | 77 | 1012.2 |
| 20260506171538 | 62 | 38 | 4.3 | 8.7 | 0.00 | 0.16 | 0.01 | 77 | 1012.3 |
| 20260506171041 | 62 | 294 | 3.5 | 7.8 | 0.00 | 0.16 | 0.01 | 78 | 1012.2 |
| 20260506170522 | 62 | 315 | 3.5 | 7.8 | 0.00 | 0.16 | 0.01 | 77 | 1012.3 |
| 20260506170028 | 62 | 306 | 3.5 | 7.0 | 0.00 | 0.16 | 0.01 | 78 | 1012.3 |
| 20260506165515 | 62 | 289 | 1.7 | 7.0 | 0.00 | 0.16 | 0.01 | 77 | 1012.4 |
| 20260506165043 | 62 | 294 | 3.5 | 7.8 | 0.00 | 0.16 | 0.01 | 77 | 1012.3 |
| 20260506164510 | 62 | 288 | 2.6 | 7.8 | 0.00 | 0.16 | 0.01 | 77 | 1012.3 |
| 20260506164038 | 62 | 21 | 1.7 | 8.7 | 0.00 | 0.16 | 0.01 | 77 | 1012.2 |
| 20260506163526 | 62 | 19 | 3.5 | 9.6 | 0.00 | 0.16 | 0.01 | 77 | 1012.2 |
| 20260506163034 | 62 | 11 | 4.3 | 9.6 | 0.00 | 0.16 | 0.01 | 76 | 1012.1 |
| 20260506162541 | 62 | 350 | 1.7 | 7.8 | 0.00 | 0.16 | 0.01 | 76 | 1012.2 |
| 20260506162029 | 62 | 310 | 1.7 | 7.0 | 0.00 | 0.16 | 0.01 | 76 | 1012.2 |
| 20260506161517 | 62 | 307 | 4.3 | 7.0 | 0.00 | 0.16 | 0.01 | 75 | 1012.1 |
| 20260506161045 | 62 | 340 | 1.7 | 7.8 | 0.00 | 0.16 | 0.01 | 76 | 1012.1 |
| 20260506160532 | 62 | 281 | 2.6 | 7.8 | 0.00 | 0.16 | 0.01 | 76 | 1012.2 |
| 20260506160018 | 62 | 315 | 0.9 | 8.7 | 0.00 | 0.16 | 0.01 | 76 | 1012.1 |
| 20260506155544 | 61 | 337 | 2.6 | 8.7 | 0.00 | 0.16 | 0.01 | 75 | 1012.2 |
| 20260506155029 | 61 | 313 | 2.6 | 7.8 | 0.00 | 0.16 | 0.01 | 76 | 1012.2 |
| 20260506154516 | 61 | 316 | 4.3 | 8.7 | 0.00 | 0.16 | 0.01 | 75 | 1012.2 |
| 20260506154021 | 62 | 286 | 4.3 | 9.6 | 0.00 | 0.16 | 0.01 | 74 | 1012.2 |
| 20260506153528 | 62 | 313 | 6.1 | 9.6 | 0.00 | 0.16 | 0.01 | 73 | 1012.3 |
| 20260506153014 | 62 | 311 | 3.5 | 9.6 | 0.00 | 0.16 | 0.01 | 73 | 1012.3 |
| 20260506152522 | 62 | 277 | 3.5 | 9.6 | 0.00 | 0.16 | 0.01 | 72 | 1012.3 |
| 20260506152027 | 62 | 316 | 4.3 | 8.7 | 0.00 | 0.16 | 0.01 | 72 | 1012.4 |
| 20260506151515 | 62 | 296 | 3.5 | 9.6 | 0.00 | 0.16 | 0.01 | 73 | 1012.4 |
| 20260506151019 | 62 | 30 | 6.1 | 9.6 | 0.00 | 0.16 | 0.01 | 72 | 1012.5 |
| 20260506150525 | 62 | 292 | 4.3 | 7.8 | 0.00 | 0.16 | 0.01 | 74 | 1012.6 |
| 20260506150015 | 62 | 282 | 2.6 | 10.4 | 0.00 | 0.16 | 0.01 | 74 | 1012.6 |
| 20260506145520 | 62 | 343 | 3.5 | 11.3 | 0.00 | 0.16 | 0.01 | 74 | 1012.6 |
| 20260506145024 | 63 | 319 | 3.5 | 10.4 | 0.00 | 0.16 | 0.01 | 72 | 1012.6 |
| 20260506144529 | 63 | 300 | 2.6 | 10.4 | 0.00 | 0.16 | 0.01 | 73 | 1012.6 |
| 20260506144016 | 62 | 291 | 1.7 | 9.6 | 0.00 | 0.16 | 0.01 | 74 | 1012.7 |
| 20260506143521 | 62 | 343 | 6.1 | 12.2 | 0.00 | 0.16 | 0.01 | 75 | 1012.7 |
| 20260506143024 | 62 | 307 | 4.3 | 12.2 | 0.00 | 0.16 | 0.01 | 77 | 1012.7 |
| 20260506142528 | 62 | 360 | 5.2 | 12.2 | 0.00 | 0.16 | 0.01 | 78 | 1012.9 |
| 20260506142012 | 62 | 355 | 4.3 | 11.3 | 0.00 | 0.16 | 0.01 | 81 | 1012.8 |
| 20260506141516 | 62 | 282 | 7.0 | 11.3 | 0.00 | 0.16 | 0.01 | 76 | 1012.8 |
| 20260506141035 | 62 | 306 | 5.2 | 12.2 | 0.00 | 0.16 | 0.01 | 77 | 1012.8 |
| 20260506140535 | 62 | 300 | 6.1 | 12.2 | 0.00 | 0.16 | 0.01 | 75 | 1012.8 |
| 20260506140020 | 61 | 351 | 6.1 | 12.2 | 0.00 | 0.16 | 0.01 | 75 | 1012.9 |
| 20260506135523 | 62 | 304 | 5.2 | 11.3 | 0.00 | 0.16 | 0.01 | 76 | 1012.9 |
| 20260506135025 | 61 | 298 | 5.2 | 12.2 | 0.00 | 0.16 | 0.01 | 76 | 1012.9 |
| 20260506134513 | 61 | 319 | 3.5 | 12.2 | 0.00 | 0.16 | 0.01 | 77 | 1012.9 |
| 20260506134015 | 61 | 281 | 5.2 | 12.2 | 0.00 | 0.16 | 0.01 | 76 | 1013.0 |
| 20260506133518 | 60 | 286 | 4.3 | 10.4 | 0.00 | 0.16 | 0.01 | 79 | 1013.0 |
| 20260506133020 | 60 | 294 | 2.6 | 10.4 | 0.00 | 0.16 | 0.01 | 79 | 1013.1 |
| 20260506132523 | 60 | 360 | 4.3 | 12.2 | 0.00 | 0.16 | 0.01 | 79 | 1013.2 |
| 20260506132021 | 60 | 292 | 2.6 | 12.2 | 0.00 | 0.16 | 0.01 | 79 | 1013.1 |
| 20260506131525 | 60 | 298 | 4.3 | 10.4 | 0.00 | 0.16 | 0.01 | 80 | 1013.1 |
| 20260506131011 | 60 | 331 | 4.3 | 9.6 | 0.00 | 0.16 | 0.01 | 79 | 1013.1 |
| 20260506130550 | 60 | 295 | 3.5 | 9.6 | 0.00 | 0.16 | 0.01 | 78 | 1013.1 |
| 20260506130012 | 60 | 313 | 4.3 | 7.8 | 0.00 | 0.16 | 0.01 | 78 | 1013.1 |
| 20260506125517 | 60 | 287 | 3.5 | 7.8 | 0.00 | 0.16 | 0.01 | 78 | 1013.1 |
| 20260506125023 | 60 | 322 | 1.7 | 9.6 | 0.00 | 0.16 | 0.01 | 77 | 1013.2 |
| 20260506124510 | 60 | 281 | 2.6 | 9.6 | 0.00 | 0.16 | 0.01 | 76 | 1013.2 |
| 20260506124037 | 60 | 242 | 2.6 | 9.6 | 0.00 | 0.16 | 0.01 | 76 | 1013.2 |
| 20260506123544 | 60 | 333 | 4.3 | 8.7 | 0.00 | 0.16 | 0.01 | 75 | 1013.2 |
| 20260506123011 | 60 | 261 | 4.3 | 8.7 | 0.00 | 0.16 | 0.01 | 73 | 1013.2 |
| 20260506122520 | 60 | 261 | 1.7 | 8.7 | 0.00 | 0.16 | 0.01 | 74 | 1013.2 |
| 20260506122047 | 61 | 304 | 1.7 | 10.4 | 0.00 | 0.16 | 0.01 | 75 | 1013.2 |
| 20260506121514 | 61 | 297 | 2.6 | 10.4 | 0.00 | 0.16 | 0.01 | 74 | 1013.2 |
| 20260506121021 | 61 | 314 | 3.5 | 8.7 | 0.00 | 0.16 | 0.01 | 73 | 1013.3 |
| 20260506120529 | 62 | 258 | 3.5 | 8.7 | 0.00 | 0.16 | 0.01 | 73 | 1013.2 |
| 20260506120016 | 62 | 281 | 5.2 | 9.6 | 0.00 | 0.16 | 0.01 | 71 | 1013.3 |
| 20260506115519 | 62 | 296 | 3.5 | 9.6 | 0.00 | 0.16 | 0.01 | 71 | 1013.3 |
| 20260506115022 | 62 | 309 | 4.3 | 9.6 | 0.00 | 0.16 | 0.01 | 70 | 1013.3 |
| 20260506114526 | 62 | 292 | 5.2 | 9.6 | 0.00 | 0.16 | 0.01 | 69 | 1013.3 |
| 20260506114013 | 62 | 278 | 3.5 | 7.8 | 0.00 | 0.16 | 0.01 | 69 | 1013.3 |
| 20260506113517 | 62 | 304 | 2.6 | 8.7 | 0.00 | 0.16 | 0.01 | 70 | 1013.4 |
| 20260506113019 | 62 | 275 | 5.2 | 10.4 | 0.00 | 0.16 | 0.01 | 71 | 1013.4 |
| 20260506112518 | 61 | 278 | 6.1 | 10.4 | 0.00 | 0.16 | 0.01 | 72 | 1013.5 |
| 20260506112020 | 61 | 311 | 4.3 | 9.6 | 0.00 | 0.16 | 0.01 | 72 | 1013.4 |
| 20260506111523 | 61 | 311 | 4.3 | 9.6 | 0.00 | 0.16 | 0.01 | 73 | 1013.5 |
| 20260506111011 | 62 | 340 | 3.5 | 8.7 | 0.00 | 0.16 | 0.01 | 72 | 1013.5 |
| 20260506110529 | 62 | 11 | 1.7 | 10.4 | 0.00 | 0.16 | 0.01 | 72 | 1013.5 |
| 20260506110010 | 62 | 294 | 5.2 | 9.6 | 0.00 | 0.16 | 0.01 | 71 | 1013.5 |
| 20260506105514 | 62 | 270 | 4.3 | 8.7 | 0.00 | 0.16 | 0.01 | 71 | 1013.4 |
| 20260506105036 | 61 | 287 | 1.7 | 8.7 | 0.00 | 0.16 | 0.01 | 73 | 1013.4 |
| 20260506104549 | 61 | 345 | 5.2 | 8.7 | 0.00 | 0.16 | 0.01 | 71 | 1013.5 |
| 20260506104012 | 61 | 286 | 1.7 | 8.7 | 0.00 | 0.16 | 0.01 | 72 | 1013.6 |
| 20260506103515 | 61 | 271 | 4.3 | 9.6 | 0.00 | 0.16 | 0.01 | 71 | 1013.6 |
| 20260506103038 | 60 | 283 | 5.2 | 9.6 | 0.00 | 0.16 | 0.01 | 71 | 1013.5 |
| 20260506102520 | 60 | 270 | 5.2 | 9.6 | 0.00 | 0.16 | 0.01 | 70 | 1013.6 |
| 20260506102023 | 60 | 261 | 4.3 | 8.7 | 0.00 | 0.16 | 0.01 | 70 | 1013.7 |
| 20260506101526 | 60 | 275 | 3.5 | 8.7 | 0.00 | 0.16 | 0.01 | 70 | 1013.7 |
| 20260506101029 | 61 | 270 | 1.7 | 7.8 | 0.00 | 0.16 | 0.01 | 70 | 1013.6 |
| 20260506100514 | 61 | 230 | 2.6 | 7.0 | 0.00 | 0.16 | 0.01 | 71 | 1013.5 |
| 20260506100038 | 61 | 202 | 1.7 | 7.0 | 0.00 | 0.20 | 0.01 | 71 | 1013.5 |
| 20260506095520 | 61 | 199 | 3.5 | 7.0 | 0.00 | 0.20 | 0.01 | 71 | 1013.5 |
| 20260506095024 | 61 | 181 | 2.6 | 6.1 | 0.00 | 0.20 | 0.01 | 72 | 1013.7 |
| 20260506094527 | 60 | 208 | 0.0 | 7.8 | 0.00 | 0.20 | 0.01 | 72 | 1013.5 |
| 20260506094013 | 60 | 203 | 4.3 | 7.8 | 0.00 | 0.20 | 0.01 | 73 | 1013.6 |
| 20260506093516 | 60 | 227 | 3.5 | 7.8 | 0.00 | 0.20 | 0.01 | 73 | 1013.6 |
| 20260506093019 | 60 | 197 | 3.5 | 7.0 | 0.00 | 0.20 | 0.01 | 73 | 1013.5 |
| 20260506092522 | 60 | 206 | 1.7 | 5.2 | 0.00 | 0.20 | 0.01 | 74 | 1013.5 |
| 20260506092025 | 60 | 194 | 1.7 | 5.2 | 0.00 | 0.20 | 0.01 | 74 | 1013.6 |
| 20260506091525 | 60 | 186 | 3.5 | 6.1 | 0.00 | 0.20 | 0.01 | 75 | 1013.5 |
| 20260506091028 | 59 | 200 | 3.5 | 6.1 | 0.00 | 0.20 | 0.01 | 75 | 1013.5 |
| 20260506090511 | 59 | 208 | 0.9 | 7.8 | 0.00 | 0.20 | 0.01 | 75 | 1013.4 |
| 20260506090017 | 59 | 207 | 4.3 | 7.8 | 0.00 | 0.28 | 0.01 | 76 | 1013.5 |
| 20260506085539 | 58 | 262 | 2.6 | 8.7 | 0.00 | 0.28 | 0.01 | 76 | 1013.4 |
| 20260506085021 | 58 | 211 | 2.6 | 7.0 | 0.00 | 0.28 | 0.01 | 76 | 1013.5 |
| 20260506084545 | 58 | 196 | 4.3 | 7.0 | 0.00 | 0.28 | 0.01 | 77 | 1013.5 |
| 20260506084027 | 58 | 212 | 2.6 | 7.8 | 0.00 | 0.28 | 0.01 | 78 | 1013.5 |
| 20260506083551 | 57 | 181 | 1.7 | 6.1 | 0.00 | 0.28 | 0.01 | 79 | 1013.5 |
| 20260506083012 | 57 | 200 | 3.5 | 6.1 | 0.00 | 0.28 | 0.01 | 81 | 1013.5 |
| 20260506082536 | 56 | 176 | 3.5 | 6.1 | 0.00 | 0.28 | 0.01 | 82 | 1013.5 |
| 20260506082015 | 56 | 186 | 1.7 | 5.2 | 0.00 | 0.28 | 0.01 | 84 | 1013.5 |
| 20260506081517 | 56 | 186 | 1.7 | 4.3 | 0.00 | 0.28 | 0.01 | 86 | 1013.6 |
| 20260506081021 | 55 | 186 | 0.9 | 5.2 | 0.00 | 0.28 | 0.01 | 86 | 1013.6 |